"Pseudo-MPEC" for P110uca

Created 2020 May 23 12:07:24 UT using Find_Orb

Click here for an explanation of pseudo-MPECs

 
 Astrometry: 
     P110uca  C2020 05 18%t0b)cL:xtD[@V^u2LD:O^)o:S5sNk78S@:GUnuyO;/h=*TiOngQF51
     P110uca  C2020 05 18g'*V!2HlJUg?L4t@/MJJ\8B@l1o:*]EK)(s*f@_S_eAY,P`0TvHvF51
     P110uca  C2020 05 18=nbf.FI-qB6y;R][Mwh2b/FH_,Xn]ZjNRf6xjCJ24#AstrometryF51
     P110uca ^C2020 05 19.58937620 49 11.122-00 06 33.51   ~5K3b 21.32GVNEOCP568
     P110uca ^C2020 05 19.59128120 49 11.584-00 06 29.74   ~5K3b 21.31GVNEOCP568
     P110uca ^C2020 05 19.59223320 49 11.811-00 06 27.84   ~5K3b 21.30GVNEOCP568
     P110uca  C2020 05 20'fac9^Qredacted;aLI2[no9oDE65D2HlFKsg2\ZJh`K)click2NF51
     P110uca  C2020 05 20)EcR:YEd$jmhZ%6LbEmt\MyJ4JSR6E;B:ugXS2hereXF8%7d+ycxF51
     P110uca  C2020 05 20MELLI:PV:(m:DiT?1frCDrC6wZTfor)3=[a=aexplanation3f!dF51
     P110uca  C2020 05 20wFD0j3cD*5A(-e+yLhgCIN`1;'2Y$(Hlp5044:IUBWt:Nf*;0SiJF51
     P110uca  C2020 05 21.40091 20 56 44.31 +00 54 34.8    ~5LAM 20.6 GVNEOCPI52
     P110uca  C2020 05 21.40343 20 56 44.96 +00 54 40.1    ~5LAM       VNEOCPI52
     P110uca  C2020 05 21.40595 20 56 45.64 +00 54 44.6    ~5LAM 20.7 GVNEOCPI52
     P110uca  C2020 05 21.41694 20 56 48.39 +00 55 07.6    ~5LAM 21.6 GVNEOCPI52
     P110uca  C2020 05 22.40304 21 01 02.68 +01 29 37.4    ~5MAq 19.7 GVNEOCPI52
     P110uca  C2020 05 22.40556 21 01 03.36 +01 29 41.9    ~5MAq 20.9 GVNEOCPI52
     P110uca  C2020 05 22.41258 21 01 05.17 +01 29 57.0    ~5MAb 20.7 GVNEOCPG96
     P110uca  C2020 05 22.41773 21 01 06.48 +01 30 08.0    ~5MAb 20.8 GVNEOCPG96
     P110uca  C2020 05 22.42289 21 01 07.82 +01 30 18.8    ~5MAb 20.8 GVNEOCPG96
     P110uca  C2020 05 22.42804 21 01 09.15 +01 30 29.9    ~5MAb 21.0 GVNEOCPG96
     P110uca  C2020 05 22.43092 21 01 09.89 +01 30 35.7    ~5MAq 20.7 GVNEOCPI52
     P110uca  C2020 05 23.40500 21 05 26.81 +02 05 29.6    ~5NAM 19.9 GVNEOCPI52
     P110uca  C2020 05 23.40691 21 05 27.15 +02 05 32.2    ~5NAM       VNEOCPI52
     P110uca  C2020 05 23.40883 21 05 27.86 +02 05 38.5    ~5NAM 21.0 GVNEOCPI52

Station data:
(568) Mauna Kea  (N19.826116 W155.472200)  US/Hawaii.
(F51) Pan-STARRS 1, Haleakala  (N20.707235 W156.255910)  US/Hawaii.
   Observers N. Primak, A. Schultz, S. Watters, J. Thiel, T. Goggia. Measurer
   PS1 Science Consortium. 1.8-m Ritchey-Chrétien + CCD.
(G96) Mt. Lemmon Survey  (N32.442754 W110.788720)  US/Arizona.  Observers T.
   A. Pruyne, B. M. Africano, E. J. Christensen, G. A. Farneth, D. C. Fuls,
   A. R. Gibbs, A. D. Grauer, H. Gröller, J. A. Johnson, R. A. Kowalski, S.
   M. Larson, G. J. Leonard, D. Rankin, R. L. Seaman, F. C. Shelly. 1.5-m
   reflector + 10K CCD.
(I52) Steward Observatory, Mt. Lemmon Station  (N32.442547 W110.788920)
   US/Arizona.  Observers T. A. Pruyne, B. M. Africano, E. J. Christensen, G.
   A. Farneth, D. C. Fuls, A. R. Gibbs, A. D. Grauer, H. Gröller, J. A.
   Johnson, R. A. Kowalski, S. M. Larson, G. J. Leonard, D. Rankin, R. L.
   Seaman, F. C. Shelly. 1.0-m reflector + CCD.

Orbital elements:  P110uca
   Perihelion 2020 Jul 30.926518 +/- 3.06 TT = 22:14:11 (JD 2459061.426518)
Epoch 2020 May 23.0 TT = JDT 2458992.5   Earth MOID: 0.0499   Ju: 0.6363
M 346.50754852 +/- 6                (J2000 ecliptic)          AutoNEOCP
n   0.19575124 +/- 0.104            Peri.  152.56159 +/- 6
a   2.93764762 +/- 1.04             Node   198.75712 +/- 3.3
e   0.7075363 +/- 0.0981            Incl.    9.27708 +/- 0.50
P   5.04                   H 19.6   G  0.15   U 11.2  
q 0.85915507 +/- 0.0266    Q 5.01614016 +/- 3.6
From 24 observations 2020 May 18-23; mean residual 0".47
Residuals in arcseconds: 
200518 F51  .11+  .17+    200520 F51  .01+  .04-    200522 G96  .27+  .05+    
200518 F51  .11-  .09+    200520 F51  .06-  .07-    200522 G96  .07+  .11+    
200518 F51  .04+  .18+    200521 I52  .59-  .00     200522 G96  .28+  .05-    
200519 568  .08-  .08-    200521 I52  .34-  .08+    200522 G96  .39+  .10+    
200519 568  .03-  .08-    200521 I52  .35+  .64-    200522 I52  .39+  .22-    
200519 568  .06-  .07-    200521 I52  .15+  .43-    200523 I52  .32+  .39+    
200520 F51  .14+  .10+    200522 I52  .30-  .72+    200523 I52  2.1-  1.2-    
200520 F51  .08-  .04-    200522 I52  .18+  .13-    200523 I52  .96+  .95+    

Ephemerides (geocentric):
Date (UTC) HH   RA              Dec         delta   r     elong  mag " sig PA
---- -- -- --  -------------   -----------  ------ ------ -----  --- ---- ---
2020 05 23 12  21 05 51.649   +02 09 02.79  .65447 1.3176 102.3 21.1 1.03  15
2020 05 23 13  21 06 02.783   +02 10 33.61  .65402 1.3172 102.3 21.1 1.06  16
2020 05 23 14  21 06 13.927   +02 12 04.52  .65358 1.3168 102.3 21.1 1.08  17
2020 05 23 15  21 06 25.082   +02 13 35.52  .65313 1.3164 102.3 21.1 1.11  18
2020 05 23 16  21 06 36.247   +02 15 06.60  .65268 1.3160 102.2 21.1 1.14  18
2020 05 23 17  21 06 47.422   +02 16 37.77  .65223 1.3156 102.2 21.1 1.17  19
2020 05 23 18  21 06 58.608   +02 18 09.03  .65179 1.3152 102.2 21.1 1.21  20
2020 05 23 19  21 07 09.805   +02 19 40.38  .65134 1.3148 102.2 21.1 1.24  20
2020 05 23 20  21 07 21.012   +02 21 11.82  .65089 1.3143 102.2 21.1 1.27  21
2020 05 23 21  21 07 32.230   +02 22 43.35  .65045 1.3139 102.2 21.1 1.31  22
2020 05 23 22  21 07 43.458   +02 24 14.96  .65000 1.3135 102.2 21.1 1.34  22
2020 05 23 23  21 07 54.696   +02 25 46.66  .64956 1.3131 102.1 21.1 1.38  23
2020 05 24 00  21 08 05.945   +02 27 18.45  .64911 1.3127 102.1 21.1 1.42  23
2020 05 24 01  21 08 17.205   +02 28 50.33  .64867 1.3123 102.1 21.1 1.46  24
2020 05 24 02  21 08 28.475   +02 30 22.29  .64823 1.3119 102.1 21.1 1.50  24
2020 05 24 03  21 08 39.756   +02 31 54.35  .64778 1.3114 102.1 21.1 1.54  25
2020 05 24 04  21 08 51.048   +02 33 26.49  .64734 1.3110 102.1 21.1 1.58  26
2020 05 24 05  21 09 02.350   +02 34 58.72  .64690 1.3106 102.0 21.1 1.62  26
2020 05 24 06  21 09 13.662   +02 36 31.03  .64646 1.3102 102.0 21.1 1.67  27
2020 05 24 07  21 09 24.986   +02 38 03.44  .64602 1.3098 102.0 21.1 1.71  27
2020 05 24 08  21 09 36.320   +02 39 35.93  .64558 1.3094 102.0 21.1 1.76  28
2020 05 24 09  21 09 47.665   +02 41 08.51  .64514 1.3090 102.0 21.1 1.81  28
2020 05 24 10  21 09 59.020   +02 42 41.18  .64470 1.3086 102.0 21.1 1.86  29
2020 05 24 11  21 10 10.386   +02 44 13.94  .64426 1.3081 102.0 21.1 1.91  29
2020 05 24 12  21 10 21.763   +02 45 46.78  .64382 1.3077 101.9 21.1 1.96  30
2020 05 24 13  21 10 33.151   +02 47 19.72  .64338 1.3073 101.9 21.1 2.01  30
2020 05 24 14  21 10 44.549   +02 48 52.74  .64295 1.3069 101.9 21.1 2.06  31
2020 05 24 15  21 10 55.958   +02 50 25.84  .64251 1.3065 101.9 21.1 2.12  31
2020 05 24 16  21 11 07.378   +02 51 59.04  .64207 1.3061 101.9 21.1 2.17  31
2020 05 24 17  21 11 18.809   +02 53 32.32  .64164 1.3057 101.9 21.1 2.23  32
2020 05 24 18  21 11 30.250   +02 55 05.69  .64120 1.3053 101.8 21.1 2.29  32
2020 05 24 19  21 11 41.702   +02 56 39.15  .64077 1.3048 101.8 21.1 2.35  33
2020 05 24 20  21 11 53.166   +02 58 12.70  .64033 1.3044 101.8 21.1 2.41  33
2020 05 24 21  21 12 04.640   +02 59 46.33  .63990 1.3040 101.8 21.1 2.47  34
2020 05 24 22  21 12 16.125   +03 01 20.05  .63946 1.3036 101.8 21.1 2.53  34
2020 05 24 23  21 12 27.620   +03 02 53.86  .63903 1.3032 101.8 21.1 2.60  34
2020 05 25 00  21 12 39.127   +03 04 27.76  .63860 1.3028 101.7 21.1 2.67  35
2020 05 25 01  21 12 50.645   +03 06 01.74  .63817 1.3024 101.7 21.1 2.73  35
2020 05 25 02  21 13 02.173   +03 07 35.81  .63773 1.3020 101.7 21.1 2.80  35
2020 05 25 03  21 13 13.713   +03 09 09.97  .63730 1.3016 101.7 21.1 2.87  36
2020 05 25 04  21 13 25.263   +03 10 44.22  .63687 1.3011 101.7 21.1 2.95  36
2020 05 25 05  21 13 36.825   +03 12 18.55  .63644 1.3007 101.7 21.1 3.02  37
2020 05 25 06  21 13 48.397   +03 13 52.97  .63601 1.3003 101.7 21.1 3.09  37
2020 05 25 07  21 13 59.981   +03 15 27.48  .63558 1.2999 101.6 21.1 3.17  37
2020 05 25 08  21 14 11.575   +03 17 02.07  .63515 1.2995 101.6 21.1 3.25  37
2020 05 25 09  21 14 23.181   +03 18 36.76  .63473 1.2991 101.6 21.1 3.33  38
2020 05 25 10  21 14 34.798   +03 20 11.53  .63430 1.2987 101.6 21.1 3.41  38
2020 05 25 11  21 14 46.425   +03 21 46.38  .63387 1.2983 101.6 21.0 3.49  38